Location: Hochstatterhof
(48.7256°N, 10.3487°E)
Time: 01:27:38
(UTC+00:00)

Meteor 1-10 Rocket - Pass Details

Date: 26 September 2023
Orbit: 836 x 909 km, 81.3° (Epoch: 04 December)

Event Time Altitude Azimuth Distance (km) Brightness Sun altitude
Rises 04:24:34 0° 198° (SSW) 3,407 7.1 -8.3°
Reaches altitude 10° 04:27:01 10° 201° (SSW) 2,467 6.4 -7.9°
Maximum altitude 04:32:34 68° 284° (WNW) 907 4.2 -7.0°
Drops below altitude 10° 04:38:07 10° 7° (N) 2,462 6.8 -6.1°
Sets 04:40:33 0° 11° (N) 3,400 7.6 -5.7°
